This is the latest recevied weather packets stored in our database for station/object KW4UJ. If no packets are shown the sender has not sent any weather packets the latest 10 day(s).
| Time | Temp. | Humidity | Pressure | Rain* | Wind** | Luminosity | Snow |
|---|---|---|---|---|---|---|---|
| 1788037287 | 28.33° C | 51% | 1021.8 hPa | 0 mm | - | 293 W/m² | - |
| 1788036986 | 27.78° C | 52% | 1021.9 hPa | 0 mm | - | 312 W/m² | - |
| 1788036683 | 28.33° C | 51% | 1022.1 hPa | 0 mm | - | 137 W/m² | - |
| 1788036379 | 27.78° C | 53% | 1022.2 hPa | 0 mm | - | 373 W/m² | - |
| 1788036073 | 27.78° C | 53% | 1022.4 hPa | 0 mm | - | 254 W/m² | - |
| 1788035772 | 28.33° C | 52% | 1022.4 hPa | 0 mm | - | 233 W/m² | - |
| 1788035468 | 28.33° C | 51% | 1022.3 hPa | 0 mm | - | 378 W/m² | - |
| 1788035163 | 28.89° C | 49% | 1022.5 hPa | 0 mm | - | 457 W/m² | - |
| 1788034859 | 28.89° C | 51% | 1022.5 hPa | 0 mm | - | 353 W/m² | - |
| 1788034555 | 28.89° C | 50% | 1022.6 hPa | 0 mm | - | 201 W/m² | - |
| 1788034251 | 30° C | 50% | 1022.7 hPa | 0 mm | - | 468 W/m² | - |
| 1788033950 | 29.44° C | 48% | 1022.7 hPa | 0 mm | - | 507 W/m² | - |
| 1788033646 | 28.89° C | 49% | 1022.9 hPa | 0 mm | - | 522 W/m² | - |
| 1788033345 | 28.33° C | 49% | 1022.9 hPa | 0 mm | - | 524 W/m² | - |
| 1788033040 | 28.33° C | 50% | 1023 hPa | 0 mm | - | 507 W/m² | - |
| 1788032740 | 28.33° C | 50% | 1022.9 hPa | 0 mm | - | 503 W/m² | - |
| 1788032435 | 28.89° C | 52% | 1022.8 hPa | 0 mm | - | 524 W/m² | - |
| 1788032130 | 28.33° C | 50% | 1023 hPa | 0 mm | - | 316 W/m² | - |
| 1788031827 | 28.33° C | 51% | 1022.9 hPa | 0 mm | - | 296 W/m² | - |
| 1788031521 | 28.89° C | 50% | 1023 hPa | 0 mm | - | 229 W/m² | - |
| 1788031221 | 28.33° C | 49% | 1023.2 hPa | 0 mm | - | 525 W/m² | - |
| 1788030920 | 28.33° C | 49% | 1023.2 hPa | 0 mm | - | 535 W/m² | - |
| 1788030620 | 28.33° C | 50% | 1023.1 hPa | 0 mm | - | 551 W/m² | - |
| 1788030320 | 28.33° C | 51% | 1023.3 hPa | 0 mm | - | 581 W/m² | - |
| 1788030016 | 28.33° C | 50% | 1023.4 hPa | 0 mm | - | 556 W/m² | - |
* Rain latest hour (hover to see other rain measurements)
** Current wind speed in m/s (hover to see current wind gust speed)